TCA7378 TKPK-SVMG

Flight info

Callsign TCA7378
Flight time N/A
Altitude 43000
Route KIPUR1 ANASU DCT GEECE DCT BAHIA EKONU
Aircraft C25B/M-SDE2E3FGHRWXY/LB1

Departure

Time 2026-05-05 20:11
Airport Robert L. Bradshaw International Airport (TKPK)

Arrival

Time N/A
Airport Del Caribe Santiago Mariño International Airport (SVMG)
Time Latitude Longitude Altitude Speed Heading
2026-05-05 20:02 17.31203 -62.71376 155 ft 0 kts 322°
2026-05-05 20:08 17.31207 -62.71381 155 ft 5 kts 313°
2026-05-05 20:08 17.31201 -62.71464 155 ft 16 kts 262°
2026-05-05 20:08 17.31169 -62.71577 155 ft 17 kts 236°
2026-05-05 20:08 17.31100 -62.71684 155 ft 18 kts 236°
2026-05-05 20:09 17.31064 -62.71805 162 ft 16 kts 262°
2026-05-05 20:09 17.31049 -62.71911 169 ft 15 kts 262°
2026-05-05 20:09 17.31019 -62.72026 170 ft 18 kts 241°
2026-05-05 20:09 17.30949 -62.72141 170 ft 20 kts 238°
2026-05-05 20:10 17.30873 -62.72263 170 ft 20 kts 235°
2026-05-05 20:10 17.30792 -62.72386 171 ft 21 kts 235°
2026-05-05 20:10 17.30722 -62.72489 171 ft 9 kts 342°
2026-05-05 20:10 17.30736 -62.72476 171 ft 0 kts 57°
2026-05-05 20:11 17.30806 -62.72358 171 ft 69 kts 59°
2026-05-05 20:11 17.31270 -62.71615 414 ft 158 kts 59°
2026-05-05 20:11 17.31945 -62.70545 1542 ft 193 kts 58°
2026-05-05 20:11 17.32734 -62.69314 2849 ft 217 kts 60°
2026-05-05 20:12 17.33587 -62.67967 4032 ft 225 kts 59°
2026-05-05 20:12 17.34462 -62.66589 5242 ft 230 kts 60°
2026-05-05 20:12 17.35353 -62.65173 6413 ft 236 kts 59°
2026-05-05 20:12 17.36138 -62.63657 7496 ft 240 kts 74°
2026-05-05 20:13 17.36481 -62.61942 8542 ft 243 kts 84°
2026-05-05 20:13 17.36374 -62.60160 9527 ft 248 kts 102°
2026-05-05 20:13 17.36049 -62.58361 10449 ft 255 kts 99°
2026-05-05 20:13 17.35742 -62.56505 11341 ft 262 kts 101°
2026-05-05 20:14 17.35400 -62.54610 12270 ft 267 kts 100°
2026-05-05 20:14 17.35058 -62.52709 13216 ft 271 kts 100°
2026-05-05 20:14 17.34575 -62.50799 14087 ft 277 kts 113°
2026-05-05 20:14 17.33560 -62.49064 14949 ft 284 kts 126°
2026-05-05 20:15 17.32094 -62.47649 15758 ft 292 kts 145°
2026-05-05 20:15 17.30275 -62.46687 16590 ft 296 kts 163°
2026-05-05 20:15 17.28276 -62.46093 17425 ft 301 kts 164°
2026-05-05 20:15 17.26263 -62.45426 18249 ft 306 kts 164°
2026-05-05 20:16 17.24235 -62.44788 19054 ft 310 kts 165°
2026-05-05 20:16 17.22160 -62.44138 19924 ft 312 kts 164°
2026-05-05 20:16 17.20075 -62.43466 20745 ft 315 kts 162°
2026-05-05 20:16 17.17997 -62.42715 21533 ft 317 kts 162°
2026-05-05 20:17 17.15895 -62.41997 22314 ft 319 kts 162°
2026-05-05 20:17 17.13778 -62.41271 23055 ft 321 kts 162°
2026-05-05 20:17 17.11649 -62.40524 23757 ft 324 kts 162°
2026-05-05 20:17 17.09501 -62.39771 24454 ft 327 kts 162°
2026-05-05 20:18 17.07336 -62.39015 25127 ft 329 kts 162°
2026-05-05 20:18 17.05184 -62.38266 25766 ft 332 kts 162°
2026-05-05 20:18 17.02980 -62.37500 26381 ft 336 kts 162°
2026-05-05 20:18 17.00755 -62.36724 27013 ft 338 kts 162°
2026-05-05 20:19 16.98484 -62.36052 27576 ft 342 kts 170°
2026-05-05 20:19 16.96101 -62.35927 28157 ft 345 kts 182°
2026-05-05 20:19 16.93722 -62.36333 28718 ft 349 kts 195°
2026-05-05 20:19 16.91446 -62.37249 29259 ft 353 kts 204°
2026-05-05 20:20 16.89198 -62.38313 29806 ft 356 kts 203°
2026-05-05 20:20 16.86951 -62.39344 30342 ft 359 kts 203°
2026-05-05 20:20 16.84652 -62.40399 30858 ft 363 kts 203°
2026-05-05 20:20 16.82340 -62.41473 31348 ft 366 kts 204°
2026-05-05 20:21 16.79997 -62.42561 31833 ft 370 kts 204°
2026-05-05 20:21 16.77630 -62.43655 32339 ft 373 kts 204°
2026-05-05 20:21 16.75245 -62.44759 32871 ft 375 kts 204°
2026-05-05 20:21 16.72856 -62.45860 33381 ft 377 kts 204°
2026-05-05 20:22 16.70450 -62.46972 33866 ft 379 kts 205°
2026-05-05 20:22 16.68056 -62.48081 34266 ft 384 kts 205°
2026-05-05 20:22 16.65644 -62.49190 35262 ft 366 kts 205°
2026-05-05 20:22 16.63404 -62.50224 36703 ft 339 kts 206°
2026-05-05 20:23 16.61271 -62.51214 37460 ft 336 kts 206°
2026-05-05 20:23 16.59118 -62.52210 37895 ft 340 kts 206°
2026-05-05 20:23 16.56945 -62.53209 38385 ft 342 kts 206°
2026-05-05 20:23 16.54763 -62.54217 38847 ft 344 kts 206°
2026-05-05 20:24 16.52565 -62.55228 39302 ft 346 kts 206°
2026-05-05 20:24 16.50387 -62.56237 39733 ft 348 kts 206°
2026-05-05 20:24 16.48169 -62.57256 40162 ft 350 kts 206°
2026-05-05 20:24 16.45930 -62.58289 40578 ft 352 kts 206°
2026-05-05 20:25 16.43690 -62.59319 40983 ft 354 kts 206°
2026-05-05 20:25 16.41436 -62.60361 41374 ft 355 kts 206°
2026-05-05 20:25 16.39170 -62.61403 41757 ft 357 kts 206°
2026-05-05 20:25 16.36894 -62.62451 42063 ft 360 kts 207°
2026-05-05 20:26 16.34562 -62.63525 42080 ft 372 kts 206°
2026-05-05 20:26 16.32156 -62.64630 42086 ft 383 kts 206°
2026-05-05 20:26 16.29719 -62.65754 42085 ft 393 kts 206°
2026-05-05 20:27 16.24603 -62.68106 42082 ft 410 kts 206°
2026-05-05 20:27 16.19291 -62.70547 42086 ft 424 kts 206°
2026-05-05 20:28 16.13830 -62.73056 42081 ft 435 kts 206°
2026-05-05 20:28 16.08238 -62.75622 42086 ft 442 kts 206°
2026-05-05 20:28 16.05551 -62.76849 42055 ft 412 kts 206°
2026-05-05 20:29 16.02932 -62.78050 42052 ft 411 kts 206°
2026-05-05 20:29 15.97716 -62.80449 42049 ft 409 kts 206°
2026-05-05 20:30 15.92511 -62.82831 42046 ft 408 kts 206°
2026-05-05 20:30 15.87317 -62.85211 42049 ft 408 kts 206°
2026-05-05 20:31 15.82128 -62.87585 42046 ft 407 kts 206°
2026-05-05 20:31 15.76984 -62.89939 42045 ft 407 kts 206°
2026-05-05 20:32 15.71802 -62.92307 42044 ft 407 kts 206°
2026-05-05 20:32 15.66623 -62.94674 42044 ft 407 kts 206°
2026-05-05 20:33 15.61479 -62.97021 42043 ft 406 kts 206°
2026-05-05 20:33 15.56309 -62.99382 42043 ft 406 kts 206°
2026-05-05 20:34 15.54593 -63.00164 42043 ft 406 kts 206°